User: anonymous   Login
Location: Unspecified
(0.0000°N, 0.0000°E)
Time: 08:01:11
(UTC+01:00)
Language:

Cosmos 1626 Rocket - Orbit

View from above orbital plane
View from above orbital plane
View from above satellite
View from above satellite

Ground track
Ground track

The orbit data is extracted from the following two-line orbital elements,

1 15495U 85009B   14354.91349350  .00001003  00000-0  11884-3 0  9738
2 15495 082.5256 318.9868 0021933 090.5983 269.7745 14.83399012615146
Epoch (UTC): 20 December 2014 21:55:25
Eccentricity: 0.0021933
inclination: 82.5256°
perigee height: 603 km
apogee height: 634 km
right ascension of ascending node: 318.9868°
argument of perigee: 90.5983°
revolutions per day: 14.83399012
mean anomaly at epoch: 269.7745°
orbit number at epoch: 61514

The dashed part of the orbit path shows where the satellite is in the earth's shadow,  

DLR